IZ1GCT Weather Reports


time (UTC)temp
C
wind
direction
speed
KPH
gust
KPH
rain 1hr
cm
rain 24hr
cm
rain mn
cm
humidity
%
barometer
mb
20260507235040 12 158 0.0 0.0 0.00 0.00 0.00 76 1017.5
20260507234539 12 135 0.0 0.0 0.00 0.00 0.00 75 1017.6
20260507234041 12 135 0.0 0.0 0.00 0.00 0.00 75 1017.7
20260507233539 12 135 0.0 1.6 0.00 0.00 0.00 76 1017.7
20260507233040 12 143 3.2 4.8 0.00 0.00 0.00 76 1017.5
20260507232540 12 158 1.6 3.2 0.00 0.00 0.00 75 1017.6
20260507232040 12 158 0.0 0.0 0.00 0.00 0.00 75 1017.7
20260507231540 12 158 0.0 0.0 0.00 0.00 0.00 75 1017.6
20260507231039 12 158 0.0 0.0 0.00 0.00 0.00 74 1017.7
20260507230539 12 158 0.0 0.0 0.00 0.00 0.00 75 1017.8
20260507230040 12 158 0.0 0.0 0.00 0.00 0.00 75 1017.7
20260507225539 12 158 0.0 1.6 0.00 0.00 0.00 75 1017.7
20260507225039 12 158 0.0 1.6 0.00 0.00 0.00 75 1017.6
20260507224540 12 158 0.0 0.0 0.00 0.00 0.00 75 1017.7
20260507224039 12 139 1.6 3.2 0.00 0.00 0.00 74 1017.6
20260507223539 13 158 0.0 1.6 0.00 0.00 0.00 73 1017.6
20260507223039 13 158 0.0 1.6 0.00 0.00 0.00 72 1017.6
20260507222539 13 158 0.0 0.0 0.00 0.00 0.00 72 1017.5
20260507222040 13 158 0.0 0.0 0.00 0.00 0.00 72 1017.5
20260507221539 13 158 0.0 1.6 0.00 0.00 0.00 72 1017.5
20260507221039 13 135 0.0 3.2 0.00 0.00 0.00 72 1017.5
20260507220540 13 135 1.6 1.6 0.00 0.00 0.00 72 1017.5
20260507220039 13 135 1.6 1.6 0.00 0.00 0.00 71 1017.4
20260507215539 13 135 1.6 4.8 0.00 0.00 0.00 71 1017.4
20260507215041 13 158 3.2 4.8 0.00 0.00 0.00 72 1017.4
20260507214540 13 153 3.2 8.0 0.00 0.00 0.00 72 1017.4
20260507214039 13 158 1.6 3.2 0.00 0.00 0.00 72 1017.4
20260507213539 13 158 3.2 4.8 0.00 0.00 0.00 72 1017.3
20260507213041 13 136 0.0 1.6 0.00 0.00 0.00 71 1017.3
20260507212540 13 135 1.6 1.6 0.00 0.00 0.00 71 1017.3
20260507212039 13 112 0.0 1.6 0.00 0.00 0.00 70 1017.4
20260507211539 13 158 0.0 1.6 0.00 0.00 0.00 70 1017.3
20260507211040 13 158 1.6 4.8 0.00 0.00 0.00 71 1017.2
20260507210540 13 158 4.8 8.0 0.00 0.00 0.00 71 1017.2
20260507210039 13 158 0.0 1.6 0.00 0.00 0.00 71 1017.3
20260507205540 13 135 0.0 1.6 0.00 0.00 0.00 70 1017.3
20260507205040 13 141 1.6 4.8 0.00 0.00 0.00 70 1017.2
20260507204539 13 158 1.6 3.2 0.00 0.00 0.00 70 1017.2
20260507204039 13 158 1.6 3.2 0.00 0.00 0.00 70 1017.1
20260507203540 13 158 1.6 1.6 0.00 0.00 0.00 70 1017.1
20260507203040 13 158 1.6 1.6 0.00 0.00 0.00 70 1016.9
20260507202539 13 135 0.0 0.0 0.00 0.00 0.00 69 1016.9
20260507202039 13 143 1.6 3.2 0.00 0.00 0.00 69 1016.9
20260507201539 13 158 3.2 4.8 0.00 0.00 0.00 68 1016.8
20260507201040 14 135 1.6 3.2 0.00 0.00 0.00 67 1016.8
20260507200540 14 158 1.6 4.8 0.00 0.00 0.00 65 1016.8
20260507200040 15 135 0.0 0.0 0.00 0.00 0.00 63 1016.7
20260507195539 15 141 0.0 1.6 0.00 0.00 0.00 63 1016.6
20260507195040 15 150 1.6 3.2 0.00 0.00 0.00 63 1016.6
20260507194539 15 158 1.6 3.2 0.00 0.00 0.00 61 1016.7
20260507194040 15 158 0.0 0.0 0.00 0.00 0.00 61 1016.5
20260507193540 15 158 1.6 3.2 0.00 0.00 0.00 61 1016.5
20260507193039 16 135 0.0 0.0 0.00 0.00 0.00 61 1016.3
20260507192540 16 145 1.6 3.2 0.00 0.00 0.00 61 1016.2
20260507192039 16 113 0.0 0.0 0.00 0.00 0.00 60 1016.2
20260507191539 16 141 4.8 9.7 0.00 0.00 0.00 60 1016.2
20260507191040 16 122 3.2 4.8 0.00 0.00 0.00 61 1016.2
20260507190539 16 141 8.0 9.7 0.00 0.00 0.00 61 1016.2
20260507190040 16 158 8.0 8.0 0.00 0.00 0.00 61 1016.0
20260507185540 16 158 9.7 12.9 0.00 0.00 0.00 60 1015.8
20260507185040 16 135 3.2 9.7 0.00 0.00 0.00 60 1015.9
20260507184539 16 158 8.0 12.9 0.00 0.00 0.00 60 1015.8
20260507184039 16 142 4.8 11.3 0.00 0.00 0.00 61 1015.7
20260507183540 16 135 3.2 4.8 0.00 0.00 0.00 61 1015.7
20260507183040 16 158 1.6 3.2 0.00 0.00 0.00 60 1015.6
20260507182539 16 158 4.8 8.0 0.00 0.00 0.00 59 1015.7
20260507182039 16 142 8.0 9.7 0.00 0.00 0.00 60 1015.5
20260507181540 17 150 3.2 4.8 0.00 0.00 0.00 60 1015.5
20260507181039 17 135 4.8 4.8 0.00 0.00 0.00 57 1015.5
20260507180539 17 146 4.8 9.7 0.00 0.00 0.00 52 1015.5
20260507180040 17 135 4.8 8.0 0.00 0.00 0.00 51 1015.3
20260507175540 17 118 4.8 9.7 0.00 0.00 0.00 50 1015.3
20260507175039 18 142 3.2 4.8 0.00 0.00 0.00 50 1015.4
20260507174540 18 135 4.8 9.7 0.00 0.00 0.00 50 1015.2
20260507174040 18 116 3.2 8.0 0.00 0.00 0.00 50 1015.2
20260507173539 18 135 3.2 4.8 0.00 0.00 0.00 49 1015.1
20260507173039 18 156 9.7 12.9 0.00 0.00 0.00 49 1015.2
20260507172540 18 135 8.0 11.3 0.00 0.00 0.00 48 1015.1
20260507172039 18 119 4.8 8.0 0.00 0.00 0.00 48 1015.2
20260507171539 18 152 11.3 12.9 0.00 0.00 0.00 48 1015.0
20260507171040 18 124 11.3 16.1 0.00 0.00 0.00 48 1015.0
20260507170540 19 155 12.9 19.3 0.00 0.00 0.00 47 1014.9
20260507170039 19 158 4.8 8.0 0.00 0.00 0.00 47 1014.8
20260507165539 20 135 4.8 9.7 0.00 0.00 0.00 48 1014.9
20260507165040 19 114 4.8 16.1 0.00 0.00 0.00 48 1014.9
20260507164539 20 126 12.9 16.1 0.00 0.00 0.00 46 1014.9
20260507164039 20 135 11.3 20.9 0.00 0.00 0.00 46 1014.8
20260507163540 20 142 9.7 14.5 0.00 0.00 0.00 45 1014.7
20260507163039 20 145 12.9 20.9 0.00 0.00 0.00 44 1014.7
20260507162539 20 118 12.9 16.1 0.00 0.00 0.00 43 1014.9
20260507162040 21 135 9.7 12.9 0.00 0.00 0.00 43 1014.7
20260507161540 21 135 12.9 20.9 0.00 0.00 0.00 44 1014.8
20260507161039 21 112 9.7 16.1 0.00 0.00 0.00 44 1014.6
20260507160540 21 121 12.9 22.5 0.00 0.00 0.00 45 1014.7
20260507155542 20 112 12.9 20.9 0.00 0.00 0.00 45 1014.6
20260507155043 20 121 12.9 16.1 0.00 0.00 0.00 44 1014.5
20260507154543 21 112 8.0 16.1 0.00 0.00 0.00 43 1014.5
20260507154042 20 152 14.5 19.3 0.00 0.00 0.00 43 1014.6
20260507153543 20 140 16.1 24.1 0.00 0.00 0.00 42 1014.6
20260507153043 20 112 11.3 16.1 0.00 0.00 0.00 43 1014.6
20260507152543 20 142 12.9 20.9 0.00 0.00 0.00 44 1014.6
20260507152042 21 127 12.9 20.9 0.00 0.00 0.00 42 1014.5
20260507151542 21 153 9.7 24.1 0.00 0.00 0.00 44 1014.5
20260507151043 20 112 12.9 20.9 0.00 0.00 0.00 44 1014.6
20260507150542 21 148 14.5 20.9 0.00 0.00 0.00 42 1014.6
20260507150042 21 112 9.7 12.9 0.00 0.00 0.00 44 1014.6
20260507145543 21 140 11.3 16.1 0.00 0.00 0.00 44 1014.7
20260507145042 20 135 14.5 27.4 0.00 0.00 0.00 43 1014.8
20260507144542 21 158 12.9 16.1 0.00 0.00 0.00 44 1014.7
20260507144041 20 120 12.9 20.9 0.00 0.00 0.00 46 1014.8
20260507143543 20 112 20.9 25.7 0.00 0.00 0.00 45 1014.8
20260507143042 20 112 19.3 22.5 0.00 0.00 0.00 45 1014.7
20260507142542 20 112 12.9 19.3 0.00 0.00 0.00 45 1014.8
20260507142042 20 144 20.9 25.7 0.00 0.00 0.00 46 1014.7
20260507141543 20 126 14.5 16.1 0.00 0.00 0.00 45 1014.7
20260507141042 20 133 14.5 20.9 0.00 0.00 0.00 45 1014.7
20260507140543 20 112 19.3 20.9 0.00 0.00 0.00 44 1014.9
20260507140042 20 135 20.9 27.4 0.00 0.00 0.00 46 1014.8
20260507135542 20 112 16.1 22.5 0.00 0.00 0.00 45 1014.9
20260507135043 20 122 20.9 25.7 0.00 0.00 0.00 46 1014.9
20260507134541 20 131 12.9 25.7 0.00 0.00 0.00 46 1014.8
20260507134043 20 129 16.1 20.9 0.00 0.00 0.00 45 1014.9
20260507133541 20 112 12.9 20.9 0.00 0.00 0.00 45 1014.9
20260507133043 20 152 14.5 20.9 0.00 0.00 0.00 44 1015.0
20260507132542 20 112 12.9 20.9 0.00 0.00 0.00 43 1014.9
20260507132041 20 112 12.9 20.9 0.00 0.00 0.00 43 1014.9
20260507131543 21 121 20.9 27.4 0.00 0.00 0.00 43 1015.1
20260507131042 20 120 11.3 20.9 0.00 0.00 0.00 42 1014.9
20260507130542 21 156 12.9 20.9 0.00 0.00 0.00 46 1015.0
20260507130043 20 112 9.7 12.9 0.00 0.00 0.00 46 1015.1
20260507125542 20 127 20.9 25.7 0.00 0.00 0.00 43 1015.1
20260507125042 20 120 11.3 16.1 0.00 0.00 0.00 43 1015.2
20260507124543 20 125 12.9 16.1 0.00 0.00 0.00 44 1015.1
20260507124042 20 135 11.3 16.1 0.00 0.00 0.00 44 1015.2
20260507123542 20 129 9.7 12.9 0.00 0.00 0.00 45 1015.3
20260507123043 20 122 11.3 16.1 0.00 0.00 0.00 44 1015.2
20260507122542 20 135 11.3 16.1 0.00 0.00 0.00 47 1015.3
20260507122041 20 142 16.1 20.9 0.00 0.00 0.00 45 1015.3
20260507121543 19 121 9.7 12.9 0.00 0.00 0.00 49 1015.3
20260507121042 19 154 11.3 16.1 0.00 0.00 0.00 46 1015.3
20260507120542 19 123 16.1 27.4 0.00 0.00 0.00 49 1015.3
20260507120043 20 135 20.9 27.4 0.00 0.00 0.00 47 1015.4
20260507115542 20 135 9.7 20.9 0.00 0.00 0.00 50 1015.4
20260507115042 19 120 16.1 25.7 0.00 0.00 0.00 48 1015.5
20260507114541 19 112 14.5 22.5 0.00 0.00 0.00 47 1015.5
20260507114043 20 112 9.7 14.5 0.00 0.00 0.00 43 1015.4
20260507113543 20 119 16.1 24.1 0.00 0.00 0.00 45 1015.5
20260507113041 20 117 9.7 12.9 0.00 0.00 0.00 47 1015.4
20260507112543 20 112 9.7 14.5 0.00 0.00 0.00 42 1015.6
20260507112042 19 154 16.1 24.1 0.00 0.00 0.00 46 1015.7
20260507111541 20 135 14.5 22.5 0.00 0.00 0.00 44 1015.7
20260507111042 19 112 9.7 14.5 0.00 0.00 0.00 44 1015.6
20260507110542 20 134 14.5 20.9 0.00 0.00 0.00 41 1015.8
20260507110043 20 112 14.5 20.9 0.00 0.00 0.00 43 1015.8
20260507105543 19 132 8.0 11.3 0.00 0.00 0.00 41 1015.8
20260507105042 19 135 9.7 14.5 0.00 0.00 0.00 41 1015.6
20260507104541 18 112 19.3 27.4 0.00 0.00 0.00 41 1015.7
20260507104042 18 119 12.9 20.9 0.00 0.00 0.00 43 1015.8
20260507103542 18 128 16.1 25.7 0.00 0.00 0.00 42 1015.8
20260507103041 19 135 9.7 12.9 0.00 0.00 0.00 43 1015.8
20260507102542 19 134 8.0 16.1 0.00 0.00 0.00 43 1015.8
20260507102041 19 131 11.3 14.5 0.00 0.00 0.00 43 1015.9
20260507101543 19 125 11.3 14.5 0.00 0.00 0.00 41 1015.8
20260507101042 18 135 11.3 19.3 0.00 0.00 0.00 43 1015.9
20260507100542 18 112 11.3 16.1 0.00 0.00 0.00 44 1016.0
20260507100043 18 112 9.7 12.9 0.00 0.00 0.00 41 1016.0
20260507095543 18 129 9.7 14.5 0.00 0.00 0.00 40 1015.9
20260507095042 18 126 9.7 12.9 0.00 0.00 0.00 41 1015.9
20260507094543 18 134 11.3 12.9 0.00 0.00 0.00 37 1015.9
20260507094042 18 129 8.0 11.3 0.00 0.00 0.00 42 1016.0
20260507093542 18 126 11.3 19.3 0.00 0.00 0.00 41 1016.0
20260507093041 18 129 9.7 14.5 0.00 0.00 0.00 40 1016.0
20260507092543 18 135 9.7 12.9 0.00 0.00 0.00 40 1016.0
20260507092042 18 152 3.2 8.0 0.00 0.00 0.00 44 1016.0
20260507091543 18 120 4.8 12.9 0.00 0.00 0.00 43 1016.0
20260507091042 17 135 3.2 4.8 0.00 0.00 0.00 48 1016.1
20260507090541 17 135 9.7 12.9 0.00 0.00 0.00 52 1016.1
20260507090043 17 135 9.7 9.7 0.00 0.00 0.00 50 1016.0
20260507085542 17 143 8.0 11.3 0.00 0.00 0.00 54 1016.1
20260507085042 17 119 9.7 12.9 0.00 0.00 0.00 55 1016.1
20260507084541 17 120 9.7 12.9 0.00 0.00 0.00 56 1016.2
20260507084043 16 135 9.7 12.9 0.00 0.00 0.00 56 1016.1
20260507083542 16 132 3.2 12.9 0.00 0.00 0.00 56 1016.1
20260507083042 16 144 8.0 11.3 0.00 0.00 0.00 55 1016.2
20260507082543 16 152 9.7 11.3 0.00 0.00 0.00 54 1016.1
20260507082042 17 141 4.8 8.0 0.00 0.00 0.00 53 1016.2
20260507081541 16 126 8.0 9.7 0.00 0.00 0.00 53 1016.3
20260507081043 16 120 9.7 11.3 0.00 0.00 0.00 52 1016.2
20260507080542 17 135 8.0 11.3 0.00 0.00 0.00 51 1016.2
20260507080042 16 135 1.6 3.2 0.00 0.00 0.00 50 1016.2
20260507075541 16 117 8.0 11.3 0.00 0.00 0.00 48 1016.2
20260507075043 17 112 3.2 4.8 0.00 0.00 0.00 41 1016.2
20260507074542 17 135 3.2 8.0 0.00 0.00 0.00 41 1016.3
20260507074042 16 121 3.2 9.7 0.00 0.03 0.00 40 1016.2
20260507073542 17 140 4.8 9.7 0.00 0.03 0.00 42 1016.3
20260507073041 16 135 1.6 4.8 0.00 0.03 0.00 43 1016.2
20260507072541 16 135 1.6 3.2 0.00 0.03 0.00 45 1016.2
20260507072042 16 144 3.2 8.0 0.00 0.03 0.00 43 1016.2
20260507071543 16 116 4.8 8.0 0.00 0.03 0.00 43 1016.2
20260507071042 16 146 3.2 4.8 0.00 0.03 0.00 44 1016.1
20260507070541 16 130 1.6 4.8 0.00 0.03 0.00 43 1016.1
20260507070043 17 135 3.2 4.8 0.00 0.03 0.00 44 1016.1
20260507065542 17 354 1.6 4.8 0.00 0.03 0.00 48 1016.1
20260507065043 16 321 1.6 3.2 0.00 0.03 0.00 50 1016.1
20260507064542 15 315 3.2 4.8 0.00 0.03 0.00 50 1016.1
20260507064041 15 270 1.6 3.2 0.00 0.03 0.00 51 1016.0
20260507063543 15 313 4.8 8.0 0.00 0.03 0.00 48 1016.0
20260507063042 15 250 0.0 0.0 0.00 0.03 0.00 52 1016.0
20260507062541 15 225 0.0 1.6 0.00 0.03 0.00 54 1015.9
20260507062043 13 236 0.0 1.6 0.00 0.03 0.00 54 1015.9
20260507061542 12 270 3.2 4.8 0.00 0.03 0.00 56 1015.9
20260507061041 12 267 8.0 9.7 0.00 0.03 0.00 58 1015.8
20260507060543 13 270 8.0 9.7 0.00 0.05 0.00 53 1015.9
20260507060041 14 270 3.2 4.8 0.00 0.05 0.00 56 1015.8
20260507055542 15 317 1.6 3.2 0.00 0.05 0.00 60 1016.0
20260507055042 13 225 0.0 0.0 0.00 0.05 0.00 63 1015.8
20260507054541 12 315 0.0 0.0 0.00 0.05 0.00 66 1015.8
20260507054043 11 315 1.6 3.2 0.00 0.05 0.00 74 1015.8
20260507053542 10 180 0.0 1.6 0.00 0.05 0.00 84 1015.8
20260507053042 8 180 0.0 1.6 0.00 0.05 0.00 88 1015.7
20260507052541 6 180 0.0 0.0 0.00 0.05 0.00 92 1015.6
20260507052042 6 180 1.6 3.2 0.00 0.10 0.00 91 1015.6
20260507051542 5 225 0.0 0.0 0.00 0.10 0.00 91 1015.5
20260507051041 5 225 0.0 0.0 0.00 0.13 0.00 91 1015.4
20260507050543 5 45 1.6 3.2 0.00 0.15 0.00 90 1015.4
20260507050042 5 180 0.0 1.6 0.00 0.18 0.00 90 1015.4
20260507045541 5 180 0.0 0.0 0.00 0.20 0.00 90 1015.3
20260507045041 5 180 1.6 1.6 0.00 0.23 0.00 89 1015.2
20260507044542 5 180 0.0 1.6 0.00 0.23 0.00 89 1015.1
20260507044042 5 180 0.0 0.0 0.00 0.28 0.00 89 1015.2
20260507043541 5 152 1.6 3.2 0.00 0.30 0.00 88 1015.0
20260507043043 5 315 0.0 0.0 0.00 0.33 0.00 88 1015.0
20260507042542 5 135 3.2 4.8 0.00 0.36 0.00 88 1014.9
20260507042041 5 169 4.8 9.7 0.00 0.38 0.00 87 1015.0
20260507041543 5 158 4.8 9.7 0.00 0.38 0.00 86 1014.8
20260507041042 6 266 1.6 3.2 0.00 0.43 0.00 86 1014.9
20260507040542 6 135 3.2 4.8 0.00 0.46 0.00 86 1014.9
20260507035547 6 138 4.8 4.8 0.00 0.46 0.00 85 1014.8
20260507035046 6 180 0.0 1.6 0.00 0.46 0.00 85 1014.8
20260507034548 6 135 0.0 0.0 0.00 0.46 0.00 85 1014.9
20260507034047 6 173 0.0 8.0 0.00 0.46 0.00 85 1014.8
20260507033547 6 229 0.0 1.6 0.00 0.46 0.00 85 1014.9
20260507033046 6 268 0.0 1.6 0.00 0.46 0.00 85 1014.9
20260507032548 6 180 1.6 4.8 0.00 0.46 0.00 86 1014.9
20260507032047 6 180 1.6 3.2 0.00 0.46 0.00 86 1014.9
20260507031548 6 193 0.0 1.6 0.00 0.48 0.00 86 1014.9
20260507031047 6 246 0.0 1.6 0.00 0.48 0.00 86 1015.1
20260507030547 6 180 3.2 4.8 0.00 0.48 0.00 85 1015.0
20260507030046 6 135 3.2 4.8 0.00 0.48 0.00 84 1015.1
20260507025547 6 180 0.0 1.6 0.00 0.48 0.00 84 1015.1
20260507025047 6 295 1.6 3.2 0.00 0.48 0.00 84 1015.2
20260507024546 7 158 0.0 0.0 0.00 0.48 0.00 85 1015.2
20260507024046 7 158 0.0 1.6 0.00 0.48 0.00 87 1015.1
20260507023546 7 180 0.0 1.6 0.00 0.48 0.00 84 1015.2
20260507023046 7 270 4.8 11.3 0.00 0.48 0.00 91 1015.1
20260507022547 6 192 1.6 3.2 0.00 0.48 0.00 92 1015.2
20260507022047 6 135 3.2 4.8 0.00 0.48 0.00 92 1015.1
20260507021546 6 192 1.6 3.2 0.00 0.48 0.00 92 1015.1
20260507021048 5 180 1.6 3.2 0.00 0.48 0.00 91 1015.1
20260507020547 5 214 1.6 3.2 0.00 0.48 0.00 91 1014.9
20260507020046 5 180 0.0 0.0 0.00 0.48 0.00 91 1015.0
20260507015547 5 135 0.0 1.6 0.00 0.48 0.00 91 1015.0
20260507015046 5 135 1.6 1.6 0.00 0.48 0.00 90 1014.9
20260507014548 5 135 0.0 0.0 0.00 0.48 0.00 90 1014.8
20260507014047 6 98 1.6 3.2 0.00 0.48 0.00 90 1014.9
20260507013548 5 225 1.6 3.2 0.00 0.48 0.00 90 1014.8
20260507013047 5 180 0.0 1.6 0.00 0.48 0.00 90 1014.8
20260507012548 5 270 0.0 0.0 0.00 0.48 0.00 90 1014.6
20260507012048 6 22 0.0 1.6 0.00 0.48 0.00 90 1014.7
20260507011549 6 135 1.6 4.8 0.00 0.48 0.00 90 1014.5
20260507011048 6 212 1.6 1.6 0.00 0.48 0.00 90 1014.5
20260507010549 6 31 1.6 3.2 0.00 0.48 0.00 90 1014.5
20260507010047 6 135 1.6 3.2 0.00 0.48 0.00 90 1014.4
20260507005549 6 180 0.0 1.6 0.00 0.48 0.00 90 1014.4
20260507005048 6 0 0.0 1.6 0.00 0.48 0.00 90 1014.3
20260507004548 6 159 4.8 9.7 0.00 0.48 0.00 90 1014.3
20260507004048 6 135 1.6 1.6 0.00 0.48 0.00 89 1014.3
20260507003547 6 186 1.6 4.8 0.00 0.48 0.00 89 1014.3
20260507003047 6 135 0.0 0.0 0.00 0.48 0.00 89 1014.2
20260507002548 6 135 1.6 3.2 0.00 0.48 0.00 89 1014.2
20260507002048 6 225 0.0 1.6 0.00 0.48 0.00 89 1014.2
20260507001547 6 147 4.8 4.8 0.00 0.48 0.00 89 1014.2
20260507001048 6 135 0.0 3.2 0.00 0.48 0.00 89 1014.3
20260507000548 7 135 8.0 9.7 0.00 0.48 0.00 89 1014.3
20260507000047 7 135 3.2 4.8 0.00 0.48 0.00 89 1014.2
20260506235547 6 135 0.0 1.6 0.00 0.48 0.00 89 1014.3